User: anonymous   Login
Location: SAPM � Hemmingford
(45.0500°N, 73.5833°W)
Time: 17:16:35
(UTC-04:00)
Language:

Iridium 75 - Orbit

View from above orbital plane
View from above orbital plane
View from above satellite
View from above satellite

Ground track
Ground track

The orbit data is extracted from the following two-line orbital elements,

1 25346U 98032E   16122.30972130  .00000248  00000-0  81451-4 0  9996
2 25346  86.4001  36.2916 0002182  83.3220  30.7157 14.34215429940639
Epoch (UTC): 01 May 2016 07:25:59
Eccentricity: 0.0002182
inclination: 86.4001°
perigee height: 776 km
apogee height: 779 km
right ascension of ascending node: 36.2916°
argument of perigee: 83.3220°
revolutions per day: 14.34215429
mean anomaly at epoch: 30.7157°
orbit number at epoch: 94063

The dashed part of the orbit path shows where the satellite is in the earth's shadow,  

DLR